格洛纳斯-765 COSMOS 2307 [GLONASS]

导读 | 星芒AI

COSMOS 2307 是一颗俄罗斯 GLONASS 卫星,于1994年发射,旨在提供全球导航与定位服务。该卫星属于 GLONASS-M 系列,运行在中地球轨道,设计寿命为7年。COSMOS 2307 在轨期间为俄罗斯及国际用户提供了关键的导航数据。然而,该卫星最终因燃料耗尽或技术故障而退役,目前处于非活跃状态,成为轨道上的废弃物体。其退役也反映了 GLONASS 系统持续更新换代的趋势。

基本信息
目录编号:
23511
目录名称:
COSMOS 2307 (GLONASS)
国际标识:
1995-009A
轨道中心:
EARTH
卫星名称:
格洛纳斯-765
卫星全名:
格洛纳斯-765 COSMOS 2307 [GLONASS]
卫星状态:
在轨 (已飞行11197 天)
发射日期:
1995-03-07 UTC
国别 :
俄罗斯(独联体) (CIS)
星等 :
--
轨道信息
数据来源 国际轨道数据 AOE轨道数据
星历时间 2025-10-31T20:24:44+0800
17小时前
查看轨道信息
2025-10-26T22:00:00+0800
5天前
查看轨道信息
半长轴 25507.77km 25507.754km
偏心率 0.000499 0.0005016
轨道倾角 64.171° 64.174°
近地点辐角 144.671° 145.100°
升交点赤经 309.344° 309.519°
平近点角 27.244° 201.686°
近地点 19116.906km 19116.824km
远地点 19142.364km 19142.414km
周期 675.723分钟 675.722分钟
每日圈数 2.131052 2.131054
详细信息
平衡模式:
三轴稳定
覆盖范围:
全球
运营商:
列舍特涅夫卫星信息系统
运营商所在国:
俄罗斯
制造商(研发单位):
列舍特涅夫卫星信息系统
制造商所在国:
俄罗斯
使用方式:
暂无
卫星简介
格洛纳斯(GLONASS )是苏联/俄罗斯研制卫星导航系统。标准配置为24颗卫星,其中18颗卫星就能保证该系统为俄罗斯境内用户提供全部服务。该卫星已退役。
2D轨道图
3D轨道图
轨道高度分析图
轨道倾角分析图
轨道综合分析图
查看轨道综合分析图